Location: Boncourt
(49.6160°N, 3.9448°E)
Time: 13:37:29
(UTC+00:00)

Cosmos 2154 Rocket - Pass Details

Date: 09 February 2023
Orbit: 965 x 997 km, 82.9° (Epoch: 21 March)

Event Time Altitude Azimuth Distance (km) Brightness Sun altitude
Rises 19:08:44 0° 353° (N) 3,729 7.2 -22.4°
Reaches altitude 10° 19:11:24 10° 360° (N) 2,774 6.4 -22.8°
Enters shadow 19:17:24 47° 70° (ENE) 1,297 4.2 -23.8°
